Location: Ellerstadt
(49.4644°N, 8.2615°E)
Time: 20:38:49
(UTC+00:00)

Tiros 1 despin weight - Visible Passes

Search period start: 23 July 2021 00:00
Search period end: 02 August 2021 00:00
Orbit: 593 x 641 km, 48.2° (Epoch: 23 July)

Date Brightness Start Highest point End Pass type
(mag) Time Alt. Az. Time Alt. Az. Time Alt. Az.
23 Jul ? 20:19:03 10° W 20:23:37 58° SSW 20:27:52 11° ESE visible
23 Jul ? 22:01:02 10° W 22:04:35 22° SW 22:04:52 22° SSW visible
24 Jul ? 20:35:22 10° W 20:39:45 42° SSW 20:43:03 16° SE visible
24 Jul ? 22:18:14 10° WSW 22:20:04 13° SW 22:20:04 13° SW visible
25 Jul ? 20:51:48 10° W 20:55:48 29° SSW 20:58:18 18° SSE visible
26 Jul ? 21:08:33 10° W 21:11:44 18° SW 21:13:35 15° S visible
27 Jul ? 21:26:35 10° WSW 21:27:33 11° SW 21:28:31 10° SSW visible
28 Jul ? 19:59:12 10° W 20:02:58 24° SW 20:06:42 10° SSE visible
29 Jul ? 20:16:11 10° WSW 20:18:51 15° SW 20:21:30 10° S visible
